• In Uzbekistan
  • List of Countries
  • For 7 days
  • Water Temperature
  • Weather Map
  • Weather Widgets
  • user-avatar
    Login

    Hourly Weather Cuiaba

    Today, 25 February, Tuesday

    Time Temperature Precipitation Wind Pressure Humidity
    00:00 +25°C° 0 mm 2 mps 739 mmHg 89%
    01:00 +25°C° 0 mm 2 mps 739 mmHg 88%
    02:00 +25°C° 0 mm 2 mps 739 mmHg 87%
    03:00 +25°C° 0 mm 2 mps 739 mmHg 87%
    04:00 +25°C° 0 mm 1 mps 739 mmHg 88%
    05:00 +25°C° 0 mm 1 mps 739 mmHg 88%
    06:00 +25°C° 0 mm 1 mps 740 mmHg 88%
    07:00 +26°C° 0 mm 2 mps 740 mmHg 87%
    08:00 +26°C° 0 mm 2 mps 741 mmHg 87%
    09:00 +28°C° 0 mm 2 mps 741 mmHg 82%
    10:00 +29°C° 0 mm 3 mps 741 mmHg 77%
    11:00 +31°C° 0 mm 3 mps 741 mmHg 72%
    12:00 +31°C° 0 mm 3 mps 740 mmHg 70%
    13:00 +33°C° 0 mm 3 mps 739 mmHg 69%
    14:00 +34°C° 0 mm 3 mps 738 mmHg 67%
    15:00 +33°C° 0.3 mm 3 mps 737 mmHg 71%
    16:00 +31°C° 0.3 mm 2 mps 737 mmHg 75%
    17:00 +31°C° 0.3 mm 2 mps 737 mmHg 78%
    18:00 +29°C° 0 mm 2 mps 737 mmHg 81%
    19:00 +28°C° 0 mm 1 mps 738 mmHg 84%
    20:00 +27°C° 0 mm 1 mps 738 mmHg 86%
    21:00 +27°C° 0.1 mm 1 mps 739 mmHg 87%
    22:00 +26°C° 0.1 mm 1 mps 739 mmHg 88%
    23:00 +26°C° 0.1 mm 1 mps 739 mmHg 89%

    Tomorrow, 26 February, Wednesday

    Time Temperature Precipitation Wind Pressure Humidity
    00:00 +26°C° 0 mm 1 mps 739 mmHg 91%
    01:00 +26°C° 0 mm 1 mps 739 mmHg 92%
    02:00 +25°C° 0 mm 1 mps 739 mmHg 93%
    03:00 +26°C° 0 mm 1 mps 739 mmHg 92%
    04:00 +26°C° 0 mm 1 mps 738 mmHg 91%
    05:00 +26°C° 0 mm 1 mps 738 mmHg 91%
    06:00 +26°C° 0 mm 1 mps 739 mmHg 89%
    07:00 +27°C° 0 mm 2 mps 739 mmHg 88%
    08:00 +27°C° 0 mm 2 mps 740 mmHg 87%
    09:00 +27°C° 0.1 mm 2 mps 740 mmHg 87%
    10:00 +27°C° 0.1 mm 2 mps 740 mmHg 88%
    11:00 +27°C° 0.1 mm 1 mps 740 mmHg 88%
    12:00 +28°C° 0 mm 1 mps 739 mmHg 83%
    13:00 +30°C° 0 mm 1 mps 738 mmHg 77%
    14:00 +31°C° 0 mm 1 mps 738 mmHg 71%
    15:00 +31°C° 0.2 mm 1 mps 737 mmHg 73%
    16:00 +32°C° 0.2 mm 1 mps 737 mmHg 74%
    17:00 +32°C° 0.2 mm 1 mps 737 mmHg 75%
    18:00 +30°C° 0.1 mm 1 mps 737 mmHg 78%
    19:00 +29°C° 0.1 mm 1 mps 738 mmHg 80%
    20:00 +25°C° 0.1 mm 0 mps 738 mmHg 82%
    21:00 +25°C° 0 mm 0 mps 738 mmHg 83%
    22:00 +27°C° 0 mm 1 mps 739 mmHg 84%
    23:00 +26°C° 0 mm 1 mps 739 mmHg 84%

    Day after tomorrow, 27 February, Thursday

    Time Temperature Precipitation Wind Pressure Humidity
    00:00 +26°C° 0 mm 1 mps 738 mmHg 85%
    01:00 +26°C° 0 mm 1 mps 738 mmHg 86%
    02:00 +24°C° 0 mm 0 mps 737 mmHg 87%
    03:00 +23°C° 0 mm 0 mps 737 mmHg 88%
    04:00 +23°C° 0 mm 0 mps 737 mmHg 89%
    05:00 +23°C° 0 mm 0 mps 737 mmHg 90%
    06:00 +24°C° 0 mm 0 mps 738 mmHg 87%
    07:00 +27°C° 0 mm 1 mps 738 mmHg 85%
    08:00 +28°C° 0 mm 1 mps 739 mmHg 82%
    09:00 +29°C° 0 mm 1 mps 739 mmHg 78%
    10:00 +31°C° 0 mm 1 mps 739 mmHg 74%
    11:00 +32°C° 0 mm 1 mps 739 mmHg 71%
    12:00 +32°C° 0.1 mm 1 mps 738 mmHg 70%
    13:00 +32°C° 0.1 mm 1 mps 738 mmHg 69%
    14:00 +34°C° 0.1 mm 2 mps 737 mmHg 68%
    15:00 +32°C° 0.5 mm 2 mps 736 mmHg 72%
    16:00 +32°C° 0.5 mm 2 mps 736 mmHg 75%
    17:00 +31°C° 0.5 mm 1 mps 736 mmHg 79%
    18:00 +30°C° 0.7 mm 1 mps 736 mmHg 83%
    19:00 +28°C° 0.7 mm 1 mps 737 mmHg 87%
    20:00 +27°C° 0.7 mm 1 mps 738 mmHg 91%
    21:00 +27°C° 0 mm 1 mps 738 mmHg 91%
    22:00 +26°C° 0 mm 1 mps 738 mmHg 92%
    23:00 +24°C° 0 mm 0 mps 738 mmHg 92%

    28 February, Friday

    Time Temperature Precipitation Wind Pressure Humidity
    00:00 +24°C° 0 mm 0 mps 738 mmHg 92%
    01:00 +24°C° 0 mm 0 mps 738 mmHg 92%
    02:00 +23°C° 0 mm 0 mps 737 mmHg 92%
    03:00 +23°C° 0 mm 0 mps 737 mmHg 93%
    04:00 +23°C° 0 mm 0 mps 737 mmHg 94%
    05:00 +23°C° 0 mm 0 mps 738 mmHg 94%
    06:00 +24°C° 0 mm 0 mps 738 mmHg 91%
    07:00 +25°C° 0 mm 0 mps 739 mmHg 88%
    08:00 +26°C° 0 mm 0 mps 739 mmHg 85%
    09:00 +30°C° 0 mm 1 mps 739 mmHg 79%
    10:00 +31°C° 0 mm 1 mps 739 mmHg 73%
    11:00 +33°C° 0 mm 1 mps 739 mmHg 67%
    12:00 +33°C° 0 mm 1 mps 738 mmHg 65%
    13:00 +34°C° 0 mm 2 mps 737 mmHg 64%
    14:00 +34°C° 0 mm 2 mps 737 mmHg 63%
    15:00 +34°C° 0 mm 2 mps 736 mmHg 66%
    16:00 +33°C° 0 mm 1 mps 736 mmHg 69%
    17:00 +32°C° 0 mm 1 mps 736 mmHg 72%
    18:00 +31°C° 0 mm 1 mps 737 mmHg 74%
    19:00 +29°C° 0 mm 1 mps 737 mmHg 75%
    20:00 +28°C° 0 mm 1 mps 738 mmHg 77%
    21:00 +28°C° 0 mm 1 mps 738 mmHg 79%
    22:00 +27°C° 0 mm 1 mps 739 mmHg 80%
    23:00 +27°C° 0 mm 1 mps 739 mmHg 82%

    29 February, Saturday

    Time Temperature Precipitation Wind Pressure Humidity
    00:00 +26°C° 0.1 mm 2 mps 739 mmHg 85%
    01:00 +26°C° 0.1 mm 2 mps 739 mmHg 89%
    02:00 +25°C° 0.1 mm 2 mps 739 mmHg 92%
    03:00 +25°C° 0 mm 2 mps 739 mmHg 93%
    04:00 +25°C° 0 mm 2 mps 739 mmHg 94%
    05:00 +25°C° 0 mm 1 mps 739 mmHg 95%
    06:00 +26°C° 0 mm 2 mps 740 mmHg 92%
    07:00 +27°C° 0 mm 2 mps 740 mmHg 89%
    08:00 +28°C° 0 mm 2 mps 741 mmHg 85%
    09:00 +29°C° 0.8 mm 2 mps 741 mmHg 83%
    10:00 +30°C° 0.8 mm 2 mps 741 mmHg 81%
    11:00 +31°C° 0.8 mm 2 mps 741 mmHg 79%
    12:00 +31°C° 1.8 mm 2 mps 740 mmHg 79%
    13:00 +31°C° 1.8 mm 2 mps 739 mmHg 78%
    14:00 +31°C° 1.8 mm 2 mps 738 mmHg 77%
    15:00 +31°C° 1.4 mm 1 mps 738 mmHg 79%
    16:00 +31°C° 1.4 mm 1 mps 738 mmHg 82%
    17:00 +28°C° 1.4 mm 0 mps 738 mmHg 84%
    18:00 +27°C° 0.6 mm 0 mps 738 mmHg 86%
    19:00 +26°C° 0.6 mm 0 mps 739 mmHg 87%
    20:00 +25°C° 0.6 mm 0 mps 739 mmHg 89%
    21:00 +24°C° 0.4 mm 0 mps 740 mmHg 89%
    22:00 +24°C° 0.4 mm 0 mps 740 mmHg 90%
    23:00 +24°C° 0.4 mm 0 mps 740 mmHg 90%

    1 March, Sunday

    Time Temperature Precipitation Wind Pressure Humidity
    00:00 +24°C° 0 mm 0 mps 740 mmHg 91%
    01:00 +23°C° 0 mm 0 mps 739 mmHg 91%
    02:00 +23°C° 0 mm 0 mps 739 mmHg 92%
    03:00 +23°C° 0 mm 0 mps 739 mmHg 93%
    04:00 +23°C° 0 mm 0 mps 739 mmHg 94%
    05:00 +22°C° 0 mm 0 mps 739 mmHg 95%
    06:00 +25°C° 0 mm 1 mps 740 mmHg 93%
    07:00 +26°C° 0 mm 1 mps 740 mmHg 91%
    08:00 +27°C° 0 mm 1 mps 741 mmHg 89%
    09:00 +29°C° 0.1 mm 1 mps 741 mmHg 83%
    10:00 +30°C° 0.1 mm 1 mps 740 mmHg 78%
    11:00 +31°C° 0.1 mm 1 mps 740 mmHg 72%
    12:00 +31°C° 1.6 mm 1 mps 740 mmHg 74%
    13:00 +31°C° 1.6 mm 2 mps 739 mmHg 76%
    14:00 +31°C° 1.6 mm 2 mps 739 mmHg 78%
    15:00 +31°C° 2.3 mm 2 mps 738 mmHg 81%
    16:00 +30°C° 2.3 mm 1 mps 738 mmHg 84%
    17:00 +30°C° 2.3 mm 1 mps 738 mmHg 87%
    18:00 +28°C° 0.9 mm 1 mps 738 mmHg 88%
    19:00 +27°C° 0.9 mm 1 mps 738 mmHg 89%
    20:00 +26°C° 0.9 mm 1 mps 739 mmHg 90%
    21:00 +24°C° 0.1 mm 0 mps 739 mmHg 90%
    22:00 +23°C° 0.1 mm 0 mps 739 mmHg 90%
    23:00 +23°C° 0.1 mm 0 mps 740 mmHg 90%
    Show more